Watford City, ND

10:26 AM CST on December 06, 2019 (GMT -0600)
Watford City

Weather History for KS25 - October, 2019

Change the Weather History Date:

Sunday, October 20, 2019

  Actual Average (KISN) Record (KISN)
Temperature  
Mean Temperature 36 °F 41 °F  
Max Temperature 50 °F 54 °F 80 °F (2017)
Min Temperature 23 °F 28 °F 12 °F (1896)
Degree Days  
Heating Degree Days 28 24  
Month to date heating degree days 389  
Since 1 July heating degree days 735  
Cooling Degree Days 0 0  
Month to date cooling degree days 0  
Year to date cooling degree days 455  
Moisture  
Dew Point 29 °F    
Average Humidity 79    
Maximum Humidity 100    
Minimum Humidity 50    
Precipitation  
Precipitation 0.00 in 0.03 in 0.47 in (1996)
Month to date precipitation 0.62  
Year to date precipitation 12.80  
Sea Level Pressure  
Sea Level Pressure 29.76 in    
Wind  
Wind Speed 2 mph (North)    
Max Wind Speed 15 mph    
Max Gust Speed 21 mph    
Visibility 10 miles    
Events      
T = Trace of Precipitation, MM = Missing Value Source: NWS Daily Summary

Daily Weather History Graph

Daily Weather History Graph

Search for Another Location

Airport or City:

Astronomy

Oct. 20, 2019 Rise Set
Actual Time 8:19 AM CDT 6:55 PM CDT
Civil Twilight 7:47 AM CDT 7:27 PM CDT
Nautical Twilight 7:11 AM CDT 8:02 PM CDT
Astronomical Twilight 6:35 AM CDT 8:38 PM CDT
Moon 11:49 PM CDT (10/20) 3:07 PM CDT (10/20)
Length of Visible Light 11h 39m
Length of Day
10h 36m
Waning Gibbous, 59% of the Moon is Illuminated
Oct 20
Waning Gibbous
Oct 21
Last Quarter
Oct 27
New
Nov 4
First Quarter
Nov 12
Full

Hourly Weather History & Observations

Time (CDT) Temp. Windchill Dew Point Humidity Pressure Visibility Wind Dir Wind Speed Gust Speed Precip Events Conditions
12:15 AM 26.6 °F - 24.8 °F 93% 29.62 in 10.0 mi Calm Calm - N/A   Clear
12:35 AM 24.8 °F - 24.8 °F 100% 29.63 in 10.0 mi Calm Calm - N/A   Clear
12:55 AM 26.6 °F - 24.8 °F 93% 29.63 in 10.0 mi Calm Calm - N/A   Clear
1:15 AM 26.6 °F 22.6 °F 24.8 °F 93% 29.63 in 10.0 mi WSW 3.5 mph - N/A   Clear
1:35 AM 26.6 °F - 24.8 °F 93% 29.63 in 10.0 mi Calm Calm - N/A   Clear
1:55 AM 23.0 °F - 23.0 °F 100% 29.63 in 10.0 mi Calm Calm - N/A   Clear
2:15 AM 26.6 °F - 24.8 °F 93% 29.64 in 10.0 mi Calm Calm - N/A   Clear
2:35 AM 24.8 °F - 24.8 °F 100% 29.64 in 10.0 mi Calm Calm - N/A   Clear
2:55 AM 26.6 °F - 24.8 °F 93% 29.64 in 10.0 mi Calm Calm - N/A   Clear
3:15 AM 26.6 °F - 26.6 °F 100% 29.64 in 10.0 mi Calm Calm - N/A   Clear
3:35 AM 26.6 °F - 26.6 °F 100% 29.64 in 10.0 mi Calm Calm - N/A   Clear
3:55 AM 26.6 °F - 26.6 °F 100% 29.65 in 10.0 mi Calm Calm - N/A   Clear
4:15 AM 26.6 °F - 24.8 °F 93% 29.65 in 10.0 mi Calm Calm - N/A   Clear
4:35 AM 24.8 °F - 23.0 °F 93% 29.65 in 10.0 mi Calm Calm - N/A   Clear
4:55 AM 26.6 °F - 24.8 °F 93% 29.66 in 10.0 mi Calm Calm - N/A   Clear
5:15 AM 26.6 °F - 24.8 °F 93% 29.66 in 10.0 mi Calm Calm - N/A   Clear
5:35 AM 26.6 °F - 24.8 °F 93% 29.67 in 10.0 mi Calm Calm - N/A   Clear
5:55 AM 24.8 °F - 24.8 °F 100% 29.68 in 10.0 mi Calm Calm - N/A   Clear
6:15 AM 24.8 °F - 23.0 °F 93% 29.68 in 10.0 mi Calm Calm - N/A   Clear
6:35 AM 23.0 °F - 21.2 °F 93% 29.68 in 10.0 mi Calm Calm - N/A   Clear
6:55 AM 24.8 °F - 24.8 °F 100% 29.69 in 10.0 mi Calm Calm - N/A   Clear
7:15 AM 24.8 °F - 24.8 °F 100% 29.69 in 10.0 mi Calm Calm - N/A   Clear
7:35 AM 24.8 °F - 23.0 °F 93% 29.69 in 10.0 mi Calm Calm - N/A   Clear
7:55 AM 24.8 °F - 24.8 °F 100% 29.70 in 10.0 mi Calm Calm - N/A   Clear
8:15 AM 24.8 °F - 24.8 °F 100% 29.71 in 10.0 mi Calm Calm - N/A   Clear
8:35 AM 24.8 °F - 24.8 °F 100% 29.71 in 10.0 mi Calm Calm - N/A   Clear
8:55 AM 24.8 °F - 24.8 °F 100% 29.72 in 10.0 mi Calm Calm - N/A   Clear
9:15 AM 26.6 °F 22.6 °F 26.6 °F 100% 29.72 in 10.0 mi South 3.5 mph - N/A   Clear
9:35 AM 28.4 °F - 28.4 °F 100% 29.74 in 10.0 mi Calm Calm - N/A   Clear
9:55 AM 30.2 °F - 30.2 °F 100% 29.75 in 10.0 mi Calm Calm - N/A   Clear
10:15 AM 30.2 °F - 30.2 °F 100% 29.75 in 10.0 mi Calm Calm - N/A   Clear
10:35 AM 32.0 °F - 32.0 °F 100% 29.76 in 10.0 mi Calm Calm - N/A   Clear
10:55 AM 33.8 °F 30.8 °F 32.0 °F 93% 29.77 in 10.0 mi NNW 3.5 mph - N/A   Clear
11:15 AM 35.6 °F - 33.8 °F 93% 29.77 in 10.0 mi Calm Calm - N/A   Clear
11:35 AM 37.4 °F 33.8 °F 33.8 °F 87% 29.78 in 10.0 mi NW 4.6 mph - N/A   Clear
11:55 AM 39.2 °F - 35.6 °F 87% 29.78 in 10.0 mi Calm Calm - N/A   Clear
12:15 PM 42.8 °F 39.3 °F 37.4 °F 81% 29.78 in 10.0 mi North 5.8 mph - N/A   Partly Cloudy
12:35 PM 44.6 °F 41.4 °F 35.6 °F 71% 29.79 in 10.0 mi NNE 5.8 mph - N/A   Partly Cloudy
12:55 PM 46.4 °F 44.3 °F 33.8 °F 62% 29.78 in 10.0 mi NNE 4.6 mph - N/A   Clear
1:15 PM 48.2 °F - 32.0 °F 54% 29.78 in 10.0 mi NNE 5.8 mph - N/A   Clear
1:35 PM 50.0 °F - 32.0 °F 50% 29.78 in 10.0 mi North 6.9 mph - N/A   Clear
1:55 PM 50.0 °F - 32.0 °F 50% 29.79 in 10.0 mi North 10.4 mph - N/A   Clear
2:15 PM 50.0 °F - 32.0 °F 50% 29.79 in 10.0 mi NNW 12.7 mph - N/A   Clear
2:35 PM 50.0 °F - 32.0 °F 50% 29.79 in 10.0 mi North 10.4 mph - N/A   Clear
2:55 PM 50.0 °F - 32.0 °F 50% 29.79 in 10.0 mi North 12.7 mph - N/A   Clear
3:15 PM 50.0 °F - 32.0 °F 50% 29.79 in 10.0 mi North 11.5 mph - N/A   Clear
3:35 PM 50.0 °F - 32.0 °F 50% 29.79 in 10.0 mi North 12.7 mph - N/A   Clear
3:55 PM 50.0 °F - 33.8 °F 54% 29.80 in 10.0 mi North 12.7 mph 18.4 mph N/A   Scattered Clouds
4:15 PM 50.0 °F - 33.8 °F 54% 29.80 in 10.0 mi North 13.8 mph - N/A   Mostly Cloudy
4:35 PM 48.2 °F - 33.8 °F 58% 29.81 in 10.0 mi North 13.8 mph - N/A   Partly Cloudy
4:55 PM 48.2 °F - 32.0 °F 54% 29.82 in 10.0 mi North 15.0 mph - N/A   Partly Cloudy
5:15 PM 46.4 °F 40.4 °F 32.0 °F 57% 29.82 in 10.0 mi North 13.8 mph 20.7 mph N/A   Clear
5:35 PM 46.4 °F 41.1 °F 30.2 °F 53% 29.82 in 10.0 mi North 11.5 mph 17.3 mph N/A   Partly Cloudy
5:55 PM 46.4 °F 42.9 °F 32.0 °F 57% 29.83 in 10.0 mi North 6.9 mph 15.0 mph N/A   Mostly Cloudy
6:15 PM 46.4 °F 42.4 °F 32.0 °F 57% 29.83 in 10.0 mi North 8.1 mph - N/A   Mostly Cloudy
6:35 PM 46.4 °F 41.9 °F 30.2 °F 53% 29.84 in 10.0 mi North 9.2 mph - N/A   Overcast
6:55 PM 46.4 °F 41.5 °F 30.2 °F 53% 29.84 in 10.0 mi North 10.4 mph - N/A   Overcast
7:15 PM 46.4 °F 41.1 °F 30.2 °F 53% 29.85 in 10.0 mi North 11.5 mph - N/A   Overcast
7:35 PM 44.6 °F 39.7 °F 30.2 °F 57% 29.85 in 10.0 mi North 9.2 mph - N/A   Overcast
7:55 PM 44.6 °F 40.2 °F 28.4 °F 53% 29.86 in 10.0 mi North 8.1 mph - N/A   Mostly Cloudy
8:15 PM 41.0 °F 36.4 °F 28.4 °F 61% 29.87 in 10.0 mi North 6.9 mph - N/A   Clear
8:35 PM 39.2 °F 34.2 °F 28.4 °F 65% 29.87 in 10.0 mi North 6.9 mph - N/A   Clear
8:55 PM 37.4 °F - 28.4 °F 70% 29.88 in 10.0 mi Calm Calm - N/A   Clear
9:15 PM 35.6 °F - 26.6 °F 70% 29.88 in 10.0 mi Calm Calm - N/A   Clear
9:35 PM 37.4 °F 34.9 °F 28.4 °F 70% 29.88 in 10.0 mi NNE 3.5 mph - N/A   Clear
9:55 PM 35.6 °F 32.8 °F 28.4 °F 75% 29.88 in 10.0 mi North 3.5 mph - N/A   Clear
10:15 PM 33.8 °F - 28.4 °F 81% 29.89 in 10.0 mi Calm Calm - N/A   Clear
10:35 PM 33.8 °F - 28.4 °F 81% 29.89 in 10.0 mi Calm Calm - N/A   Clear
10:55 PM 33.8 °F - 28.4 °F 81% 29.89 in 10.0 mi Calm Calm - N/A   Clear
11:15 PM 32.0 °F - 26.6 °F 80% 29.89 in 10.0 mi Calm Calm - N/A   Clear
11:35 PM 32.0 °F - 28.4 °F 87% 29.90 in 10.0 mi Calm Calm - N/A   Clear
11:55 PM 30.2 °F - 26.6 °F 86% 29.89 in 10.0 mi Calm Calm - N/A   Clear